Sign In / Sign Up
 
 
Long Long Journey Regatta. Leg 93. 19/10 - 25/10



Race Date (UTC) # I place II place III place Track
Race1231 2020-10-22 07:49:36 2 zed MAGJA
Race1230 2020-10-22 07:44:16 4 achmed Vistona THE EQUALIZER Plaubeere
Race1229 2020-10-22 07:40:30 6 stokazzo Mana achmed
Race1228 2020-10-22 07:38:53 2 Agata 8 K2T
Race1227 2020-10-22 07:37:58 2 Agata 8 K2T
Race1226 2020-10-22 07:36:39 2 lucky2 K2T
Race1225 2020-10-22 07:32:27 7 Plaubeere Mana Pomerino
Race1224 2020-10-22 07:27:42 7 Pomerino Oreste Mana
Race1223 2020-10-22 07:24:09 3 MAGJA malina K2T
Race1222 2020-10-22 07:20:45 7 Pomerino ciuss Delfina
Race1221 2020-10-22 07:18:00 2 MAGJA K2T
Race1220 2020-10-22 07:14:31 5 Delfina ejs ciuss
Race1219 2020-10-22 07:12:39 7 captain pugwash Mana flo2000hafner
Race1218 2020-10-22 07:08:58 2 Pomerino flo2000hafner
Race1217 2020-10-22 07:07:16 2 Mana captain pugwash
Race1216 2020-10-22 07:05:21 2 bolina74 flo2000hafner
Race1215 2020-10-22 07:03:17 3 Honys Pomerino Mi barco
Race1214 2020-10-22 07:02:03 3 captain pugwash ejs flo2000hafner
Race1213 2020-10-22 06:58:33 8 Windwillow only 2to1 bolina74
Race1212 2020-10-22 06:56:12 3 Kraken Nautigus Mi barco
Race1211 2020-10-22 06:49:45 7 only 2to1 Windwillow I.G.N
Race1210 2020-10-22 06:46:06 5 only 2to1 JLS_1 Windwillow
Race1209 2020-10-22 06:43:00 3 Maverick 2107 Comanche II
Race1208 2020-10-22 06:39:42 7 zed Windwillow JLS_1
Race1207 2020-10-22 06:37:49 2 Maverick 2107
Race1206 2020-10-22 06:33:47 6 zed ELBETICO JLS_1
Race1205 2020-10-22 06:32:05 3 Mi barco 2107 Marakesh express.
Race1204 2020-10-22 06:31:28 2 Mi barco Marakesh express.
Race1203 2020-10-22 06:29:48 8 zed Windwillow JLS_1
Race1202 2020-10-22 06:24:10 8 JLS_1 zed only 2to1
Race1201 2020-10-22 06:22:53 2 piro lita ITA 24
Race1200 2020-10-22 06:13:14 8 Vistona THE EQUALIZER only 2to1 Windwillow
Race1199 2020-10-22 06:10:51 7 zed Windwillow JLS_1
Race1198 2020-10-22 06:06:57 2 Kraken Patel 470
Race1197 2020-10-22 06:04:10 5 Windwillow LOU VIRUS ITA 24
Race1196 2020-10-22 05:53:47 4 LOU VIRUS zed jajaja
Race1195 2020-10-22 05:50:16 6 NBA Nautigus LOU VIRUS
Race1194 2020-10-22 05:45:58 5 Mi barco sovinion jajaja
Race1193 2020-10-22 05:43:51 5 LOU VIRUS Ведя Киев sovinion
Race1192 2020-10-22 05:39:45 3 Yes We Marakesh express. nicojap
Race1191 2020-10-22 05:28:05 3 NBA sovinion coquillette
Race1190 2020-10-22 05:26:57 2 JLS_1 MAGJA
Race1189 2020-10-22 05:25:50 2 JLS_1 MAGJA
Race1188 2020-10-22 05:18:25 3 Oreste MAGJA coquillette
Race1187 2020-10-22 05:13:31 2 Honys MAGJA
Race1186 2020-10-22 05:07:22 2 MAGJA coquillette
Race1185 2020-10-22 05:05:58 2 coquillette DR
Race1184 2020-10-22 05:03:49 2 scarsoooo DR
Race1183 2020-10-22 04:58:38 2 scarsoooo DR
Race1182 2020-10-22 04:56:56 2 scarsoooo DR
Race1181 2020-10-22 04:46:20 4 Windwillow felipe scarsoooo
Race1180 2020-10-22 04:44:28 4 scarsoooo DR felipe
Race1179 2020-10-22 04:38:57 5 Windwillow coquillette Schifoso
Race1178 2020-10-22 04:28:51 4 scarsoooo coquillette Windwillow
Race1177 2020-10-22 04:25:55 5 odo_mendy Y.C. Tempio Pausania DR
Race1176 2020-10-22 04:21:48 3 ITA 77 Y.C. Tempio Pausania coquillette
Race1175 2020-10-22 04:19:12 3 Y.C. Tempio Pausania coquillette SI113
Race1174 2020-10-22 04:03:49 2 SI113 Gryphon
Race1173 2020-10-22 03:59:02 2 ventilator Ohsnap
Race1172 2020-10-22 02:40:08 2 DreamBoat Ohsnap
Race1171 2020-10-22 02:30:57 3 Marco Polo Petsunder kmu
Race1170 2020-10-22 02:26:39 5 odo_mendy Mad Cow Marco Polo
Race1169 2020-10-22 02:23:48 4 pokey Senator Marco Polo
Race1168 2020-10-22 02:21:22 2 Senator Petsunder
Race1167 2020-10-22 02:13:49 2 Ohsnap Petsunder
Race1166 2020-10-22 02:07:39 2 Ohsnap Petsunder
Race1165 2020-10-22 02:03:00 3 Sambaqui man ././ spinnaker
Race1164 2020-10-22 01:57:14 2 Sambaqui man spinnaker
Race1163 2020-10-22 01:50:31 2 spinnaker Sambaqui man
Race1162 2020-10-22 01:44:04 2 spinnaker Sambaqui man
Race1161 2020-10-22 01:33:34 3 Sambaqui man Senator JOANINHA
Race1160 2020-10-22 01:29:37 3 DreamBoat Sambaqui man JOANINHA
Race1159 2020-10-22 01:24:47 2 Sambaqui man JOANINHA
Race1158 2020-10-22 01:20:53 2 Sambaqui man JOANINHA
Race1157 2020-10-22 01:13:37 3 Ohsnap JOANINHA Zora
Race1156 2020-10-22 01:07:10 3 JOANINHA Zora Senator
Race1155 2020-10-22 01:01:59 4 Sambaqui man Ohsnap Zora
Race1154 2020-10-22 00:11:50 2 Sambaqui man Ohsnap
Race1153 2020-10-21 23:49:18 2 Senator JOANINHA
Race1152 2020-10-21 23:29:45 2 jlaw JOANINHA
Race1151 2020-10-21 23:20:14 3 Senator P.M.F. JOANINHA
Race1150 2020-10-21 23:17:44 2 JOANINHA Senator
Race1149 2020-10-21 23:15:25 2 Monarch Superyacht
Race1148 2020-10-21 22:38:42 4 Eisbaren Beauport Monarch Superyacht
Race1147 2020-10-21 22:34:56 5 only 2to1 Jumpin' Babe barcalotta
Race1146 2020-10-21 22:29:06 8 frida antifa 3.56.90 Jumpin' Babe only 2to1
Race1145 2020-10-21 22:24:03 6 frida antifa 3.56.90 ONO Kai Kai
Race1144 2020-10-21 22:20:36 2 frida antifa 3.56.90 Afrika
Race1143 2020-10-21 22:17:10 3 Kai Kai gunros.m Cooker
Race1142 2020-10-21 22:10:08 4 frida antifa 3.56.90 Afrika Cooker
Race1141 2020-10-21 22:09:22 2 Kai Kai Afrika
Race1140 2020-10-21 22:04:20 4 frida antifa 3.56.90 Cooker VaVaVoom
Race1139 2020-10-21 22:02:42 3 Afrika Kai Kai Brasil
Race1138 2020-10-21 22:00:52 8 RadioGaga SEFGADN Кот-Баюн
Race1137 2020-10-21 21:59:57 2 frida antifa 3.56.90 ONO
Race1136 2020-10-21 21:57:45 4 NBA Afrika SPRAY
Race1135 2020-10-21 21:55:59 6 Inutil SEFGADN Кот-Баюн
Race1134 2020-10-21 21:55:06 2 VaVaVoom Altomare
Race1133 2020-10-21 21:53:07 8 RadioGaga Lord of the sea frida antifa 3.56.90
Race1132 2020-10-21 21:51:16 5 SPRAY NBA Afrika